Погода в Ладве

Россия / Республика Карелия     61°21′21″N   34°37′45″E
темп.,
°C
ветер,
м/с
пор.,
м/с
влажн.,
%
обл.,
%
осадки,
мм/ч
давл.,
гПа
погр.,
м
15 мая, сб
сб1500:00+11юв117995 0.0 101310
03:00+12юв117622 0.0 101221
06:00+12вюв12775 0.0 101282
09:00+18вюв25597 0.0 1011577
12:00+20вюв355274 0.0 10101287
15:00+22в464647 0.0 10071790
18:00+19св4858100 0.1 1005419
21:00+13с2497100 9.3 1004106
16 мая, вс
вс1600:00+13ссв2797100 3.9 1002241
03:00+11ссз2499100 4.3 1002155
06:00+12ссз2498100 0.8 1002239
09:00+12ссв2595100 1.2 1004356
12:00+12сз2597100 1.3 1005411
15:00+13сз3893100 3.9 1007549
18:00+14зсз2487100 0.4 1009345
21:00+12ююв1195100 0.6 101011
17 мая, пн
пн1700:00+11юз239761 0.0 101282
03:00+10юз24977 0.0 101393
06:00+11ююз13945 0.0 1014106
09:00+16ююз237922 0.0 1015572
12:00+21ююз12564 0.0 10151205
15:00+23ююв2445100 0.0 10142109
18:00+20вюв3766100 0.0 1013391
21:00+15вюв2782100 0.0 1013154
18 мая, вт
вт1800:00+14вюв31089100 0.0 1013279
03:00+14вюв3128971 0.0 1011353
06:00+14в2795100 1.5 1011278
09:00+17вюв4985100 1.8 1009480
12:00+24юв5105672 0.0 10081146
15:00+26юв5134882 0.0 10061677
18:00+25ююв5124993 0.0 10051531
21:00+21юв51363100 0.0 1004687
19 мая, ср
ср1900:00+19юв4146792 0.0 1005669
03:00+15вюв39875 0.0 1004212
06:00+16юв4148140 0.0 1002639
09:00+21ююв5126419 0.0 10011192
12:00+24ююв61147100 0.0 10012188
15:00+25ююв6104952 0.0 10012207
18:00+20ююв51075100 1.6 10001101
21:00+16ююв411907 4.6 1000678